STARLINK-34492

导读 | 豆包AI

STARLINK-34492是美国SpaceX公司星链计划中的卫星,于2025年6月23日发射。星链计划旨在构建全球卫星互联网星座,为全球偏远地区、海洋空域等提供高速低延迟网络服务。该卫星加入在轨星链卫星集群,进一步扩充星座规模,推动全球互联覆盖能力提升,延续星链项目部署节奏。

基本信息
目录编号:
64473
目录名称:
STARLINK-34492
国际标识:
2025-133B
轨道中心:
EARTH
卫星名称:
STARLINK-34492
卫星全名:
STARLINK-34492
卫星状态:
在轨 (已飞行310 天)
发射日期:
2025-06-23 UTC
国别 :
美国 (US)
星等 :
--
轨道信息
数据来源 国际轨道数据 AOE轨道数据
星历时间 2026-04-29T08:48:47+0800
13小时前
查看轨道信息
2026-04-25T09:00:00+0800
4天前
查看轨道信息
半长轴 6853.345km 6853.379km
偏心率 0.0000987 0.0001181
轨道倾角 53.158° 53.158°
近地点辐角 58.365° 87.547°
升交点赤经 243.147° 261.690°
平近点角 301.745° 228.402°
近地点 474.531km 474.432km
远地点 475.885km 476.052km
周期 94.105分钟 94.106分钟
每日圈数 15.302024 15.301913
详细信息
使用方式:
暂无
2D轨道图
3D轨道图
轨道高度分析图
轨道倾角分析图
轨道综合分析图
查看轨道综合分析图